This is the latest recevied weather packets stored in our database for station/object KQ4NAL. If no packets are shown the sender has not sent any weather packets the latest 10 day(s).
| Time | Temp. | Humidity | Pressure | Rain* | Wind** | Luminosity | Snow |
|---|---|---|---|---|---|---|---|
| 1777994341 | 19.44° C | 68% | 1010.5 hPa | 0 mm | - | 313 W/m² | - |
| 1777994038 | 18.89° C | 68% | 1010.5 hPa | 0 mm | - | 297 W/m² | - |
| 1777993736 | 19.44° C | 69% | 1010.3 hPa | 0 mm | - | 288 W/m² | - |
| 1777993433 | 18.89° C | 70% | 1010.6 hPa | 0 mm | - | 263 W/m² | - |
| 1777993132 | 18.89° C | 70% | 1010.5 hPa | 0 mm | - | 241 W/m² | - |
| 1777992831 | 18.89° C | 70% | 1010.5 hPa | 0 mm | - | 212 W/m² | - |
| 1777992528 | 18.89° C | 70% | 1010.5 hPa | 0 mm | - | 205 W/m² | - |
| 1777992227 | 18.89° C | 71% | 1010.5 hPa | 0 mm | - | 224 W/m² | - |
| 1777991923 | 18.89° C | 72% | 1010.2 hPa | 0 mm | - | 223 W/m² | - |
| 1777991621 | 18.89° C | 72% | 1010.2 hPa | 0 mm | - | 225 W/m² | - |
| 1777991318 | 18.89° C | 72% | 1010 hPa | 0 mm | - | 215 W/m² | - |
| 1777991015 | 18.89° C | 72% | 1010.1 hPa | 0 mm | - | 289 W/m² | - |
| 1777990712 | 18.89° C | 72% | 1010.1 hPa | 0 mm | - | 344 W/m² | - |
| 1777990410 | 18.33° C | 73% | 1009.8 hPa | 0 mm | - | 312 W/m² | - |
| 1777989803 | 18.33° C | 74% | 1009.8 hPa | 0 mm | - | 230 W/m² | - |
| 1777989500 | 18.33° C | 75% | 1009.5 hPa | 0 mm | - | 201 W/m² | - |
| 1777989196 | 18.33° C | 75% | 1010 hPa | 0 mm | - | 221 W/m² | - |
| 1777988892 | 17.78° C | 76% | 1009.8 hPa | 0 mm | - | 251 W/m² | - |
| 1777988589 | 17.78° C | 77% | 1009.9 hPa | 0 mm | - | 239 W/m² | - |
| 1777988286 | 17.78° C | 78% | 1010.1 hPa | 0 mm | - | 227 W/m² | - |
| 1777987983 | 17.22° C | 79% | 1010.2 hPa | 0 mm | - | 207 W/m² | - |
| 1777987678 | 17.78° C | 79% | 1010.3 hPa | 0 mm | - | 154 W/m² | - |
| 1777987375 | 17.22° C | 79% | 1010.3 hPa | 0 mm | - | 229 W/m² | - |
| 1777987073 | 17.22° C | 81% | 1010.2 hPa | 0 mm | - | 217 W/m² | - |
| 1777986770 | 17.22° C | 81% | 1010.4 hPa | 0 mm | - | 180 W/m² | - |
* Rain latest hour (hover to see other rain measurements)
** Current wind speed in m/s (hover to see current wind gust speed)